Previsão horária em Aberkenfig

Hoje, 16 Maio, Domingo

Tempo Temperatura Precipitação Vento Pressão Humidade
00:00 +6°C° 0 mm 4 m/s 738 mmHg 96%
01:00 +6°C° 0.1 mm 4 m/s 738 mmHg 96%
02:00 +6°C° 0.1 mm 4 m/s 738 mmHg 96%
03:00 +6°C° 0.1 mm 4 m/s 737 mmHg 96%
04:00 +6°C° 0.2 mm 4 m/s 737 mmHg 96%
05:00 +7°C° 0.2 mm 4 m/s 737 mmHg 96%
06:00 +7°C° 0 mm 4 m/s 737 mmHg 96%
07:00 +7°C° 0.6 mm 4 m/s 737 mmHg 95%
08:00 +8°C° 0.6 mm 3 m/s 737 mmHg 95%
09:00 +9°C° 0.6 mm 3 m/s 736 mmHg 94%
10:00 +10°C° 0.4 mm 3 m/s 736 mmHg 90%
11:00 +11°C° 0.4 mm 3 m/s 736 mmHg 86%
12:00 +12°C° 0.4 mm 3 m/s 736 mmHg 82%
13:00 +12°C° 0.6 mm 3 m/s 735 mmHg 81%
14:00 +13°C° 0.6 mm 2 m/s 735 mmHg 80%
15:00 +13°C° 0.6 mm 2 m/s 735 mmHg 80%
16:00 +13°C° 0.7 mm 2 m/s 735 mmHg 83%
17:00 +11°C° 0.7 mm 3 m/s 736 mmHg 87%
18:00 +11°C° 0.7 mm 4 m/s 736 mmHg 91%
19:00 +10°C° 0.5 mm 4 m/s 737 mmHg 92%
20:00 +8°C° 0.5 mm 4 m/s 737 mmHg 93%
21:00 +8°C° 0.5 mm 4 m/s 738 mmHg 93%
22:00 +8°C° 0 mm 3 m/s 738 mmHg 93%
23:00 +7°C° 0 mm 3 m/s 739 mmHg 93%

Amanhã, 17 Maio, Segunda-feira

Tempo Temperatura Precipitação Vento Pressão Humidade
00:00 +7°C° 0 mm 3 m/s 739 mmHg 93%
01:00 +5°C° 0 mm 3 m/s 740 mmHg 93%
02:00 +5°C° 0 mm 3 m/s 740 mmHg 94%
03:00 +6°C° 0 mm 2 m/s 741 mmHg 94%
04:00 +7°C° 0 mm 3 m/s 741 mmHg 94%
05:00 +7°C° 0 mm 3 m/s 742 mmHg 93%
06:00 +8°C° 0 mm 3 m/s 742 mmHg 93%
07:00 +9°C° 0 mm 3 m/s 743 mmHg 89%
08:00 +10°C° 0 mm 4 m/s 743 mmHg 84%
09:00 +12°C° 0 mm 4 m/s 744 mmHg 79%
10:00 +12°C° 0.2 mm 5 m/s 744 mmHg 78%
11:00 +12°C° 0.2 mm 5 m/s 744 mmHg 77%
12:00 +13°C° 0.2 mm 5 m/s 745 mmHg 76%
13:00 +13°C° 0.2 mm 6 m/s 745 mmHg 74%
14:00 +13°C° 0.2 mm 6 m/s 745 mmHg 73%
15:00 +13°C° 0.2 mm 6 m/s 745 mmHg 71%
16:00 +11°C° 0.2 mm 6 m/s 746 mmHg 75%
17:00 +11°C° 0.2 mm 6 m/s 746 mmHg 79%
18:00 +10°C° 0.2 mm 6 m/s 746 mmHg 83%
19:00 +9°C° 0 mm 5 m/s 746 mmHg 86%
20:00 +7°C° 0 mm 4 m/s 747 mmHg 90%
21:00 +7°C° 0 mm 3 m/s 747 mmHg 94%
22:00 +7°C° 0 mm 3 m/s 747 mmHg 94%
23:00 +5°C° 0 mm 3 m/s 747 mmHg 94%

Depois de amanhã, 18 Maio, Terça-feira

Tempo Temperatura Precipitação Vento Pressão Humidade
00:00 +5°C° 0 mm 3 m/s 747 mmHg 94%
01:00 +5°C° 0 mm 3 m/s 747 mmHg 94%
02:00 +5°C° 0 mm 3 m/s 748 mmHg 94%
03:00 +5°C° 0 mm 3 m/s 748 mmHg 94%
04:00 +7°C° 0 mm 3 m/s 748 mmHg 93%
05:00 +7°C° 0 mm 2 m/s 748 mmHg 92%
06:00 +7°C° 0 mm 2 m/s 748 mmHg 91%
07:00 +9°C° 0 mm 3 m/s 749 mmHg 83%
08:00 +10°C° 0 mm 3 m/s 749 mmHg 76%
09:00 +11°C° 0 mm 4 m/s 749 mmHg 68%
10:00 +12°C° 0.1 mm 4 m/s 749 mmHg 68%
11:00 +12°C° 0.1 mm 5 m/s 750 mmHg 68%
12:00 +13°C° 0.1 mm 6 m/s 750 mmHg 68%
13:00 +12°C° 0.1 mm 5 m/s 750 mmHg 69%
14:00 +12°C° 0.1 mm 5 m/s 750 mmHg 71%
15:00 +12°C° 0.1 mm 4 m/s 750 mmHg 73%
16:00 +11°C° 0.2 mm 4 m/s 750 mmHg 77%
17:00 +11°C° 0.2 mm 4 m/s 750 mmHg 80%
18:00 +11°C° 0.2 mm 4 m/s 750 mmHg 83%
19:00 +8°C° 0.1 mm 4 m/s 750 mmHg 87%
20:00 +8°C° 0.1 mm 3 m/s 750 mmHg 91%
21:00 +7°C° 0.1 mm 2 m/s 750 mmHg 95%
22:00 +7°C° 0 mm 2 m/s 750 mmHg 95%
23:00 +5°C° 0 mm 3 m/s 750 mmHg 95%

19 Maio, Quarta-feira

Tempo Temperatura Precipitação Vento Pressão Humidade
00:00 +5°C° 0 mm 3 m/s 750 mmHg 95%
01:00 +5°C° 0 mm 3 m/s 750 mmHg 94%
02:00 +5°C° 0 mm 3 m/s 750 mmHg 94%
03:00 +4°C° 0 mm 3 m/s 750 mmHg 93%
04:00 +10°C° 0 mm 4 m/s 753 mmHg 76%
05:00 +9°C° 0 mm 3 m/s 753 mmHg 82%
06:00 +7°C° 0 mm 3 m/s 753 mmHg 89%
07:00 +8°C° 0 mm 4 m/s 752 mmHg 83%
08:00 +10°C° 0 mm 4 m/s 753 mmHg 77%
09:00 +12°C° 0 mm 5 m/s 753 mmHg 70%
10:00 +12°C° 0.1 mm 5 m/s 754 mmHg 69%
11:00 +11°C° 0.1 mm 6 m/s 754 mmHg 68%
12:00 +13°C° 0.1 mm 6 m/s 754 mmHg 68%
13:00 +8°C° 0 mm 4 m/s 754 mmHg 80%
14:00 +10°C° 0 mm 6 m/s 754 mmHg 72%
15:00 +12°C° 0 mm 7 m/s 755 mmHg 63%
16:00 +11°C° 0 mm 7 m/s 755 mmHg 68%
17:00 +11°C° 0 mm 7 m/s 756 mmHg 73%
18:00 +10°C° 0 mm 6 m/s 756 mmHg 78%
19:00 +9°C° 0 mm 5 m/s 756 mmHg 83%
20:00 +7°C° 0 mm 4 m/s 757 mmHg 88%
21:00 +6°C° 0 mm 4 m/s 757 mmHg 94%
22:00 +6°C° 0 mm 4 m/s 757 mmHg 95%
23:00 +6°C° 0 mm 4 m/s 757 mmHg 96%

20 Maio, Quinta-feira

Tempo Temperatura Precipitação Vento Pressão Humidade
00:00 +6°C° 0 mm 4 m/s 757 mmHg 97%
01:00 +7°C° 0 mm 3 m/s 757 mmHg 97%
02:00 +7°C° 0 mm 3 m/s 757 mmHg 97%
03:00 +7°C° 0 mm 3 m/s 757 mmHg 97%
04:00 +7°C° 0 mm 3 m/s 757 mmHg 95%
05:00 +8°C° 0 mm 2 m/s 757 mmHg 93%
06:00 +9°C° 0 mm 2 m/s 757 mmHg 91%
07:00 +10°C° 0 mm 3 m/s 757 mmHg 87%
08:00 +11°C° 0 mm 4 m/s 758 mmHg 83%
09:00 +11°C° 0 mm 6 m/s 758 mmHg 79%
10:00 +12°C° 0 mm 5 m/s 757 mmHg 77%
11:00 +12°C° 0 mm 5 m/s 757 mmHg 75%
12:00 +12°C° 0 mm 5 m/s 757 mmHg 73%
13:00 +12°C° 0 mm 5 m/s 757 mmHg 73%
14:00 +12°C° 0 mm 5 m/s 756 mmHg 73%
15:00 +12°C° 0 mm 5 m/s 756 mmHg 72%
16:00 +10°C° 0.1 mm 5 m/s 755 mmHg 78%
17:00 +10°C° 0.1 mm 5 m/s 754 mmHg 84%
18:00 +9°C° 0.1 mm 5 m/s 754 mmHg 90%
19:00 +9°C° 0.6 mm 5 m/s 753 mmHg 91%
20:00 +9°C° 0.6 mm 6 m/s 753 mmHg 93%
21:00 +9°C° 0.6 mm 6 m/s 752 mmHg 95%
22:00 +9°C° 1.5 mm 7 m/s 751 mmHg 95%
23:00 +8°C° 1.5 mm 7 m/s 750 mmHg 95%

21 Maio, Sexta-feira

Tempo Temperatura Precipitação Vento Pressão Humidade
00:00 +7°C° 1.5 mm 8 m/s 749 mmHg 96%
01:00 +9°C° 1.1 mm 8 m/s 748 mmHg 96%
02:00 +9°C° 1.1 mm 8 m/s 747 mmHg 96%
03:00 +8°C° 1.1 mm 9 m/s 746 mmHg 96%
04:00 +8°C° 0.6 mm 9 m/s 745 mmHg 96%
05:00 +8°C° 0.6 mm 9 m/s 745 mmHg 96%
06:00 +8°C° 0.6 mm 9 m/s 744 mmHg 96%
07:00 +10°C° 0.3 mm 9 m/s 744 mmHg 94%
08:00 +10°C° 0.3 mm 9 m/s 743 mmHg 93%
09:00 +10°C° 0.3 mm 9 m/s 743 mmHg 91%
10:00 +10°C° 0.4 mm 9 m/s 742 mmHg 92%
11:00 +10°C° 0.4 mm 9 m/s 742 mmHg 93%
12:00 +8°C° 0.4 mm 9 m/s 741 mmHg 94%
13:00 +9°C° 0.3 mm 10 m/s 741 mmHg 94%
14:00 +9°C° 0.3 mm 10 m/s 741 mmHg 93%
15:00 +9°C° 0.3 mm 11 m/s 740 mmHg 93%
16:00 +9°C° 0.2 mm 11 m/s 740 mmHg 93%
17:00 +8°C° 0.2 mm 11 m/s 740 mmHg 94%
18:00 +8°C° 0.2 mm 11 m/s 739 mmHg 94%
19:00 +8°C° 0.4 mm 11 m/s 739 mmHg 94%
20:00 +8°C° 0.4 mm 12 m/s 739 mmHg 94%
21:00 +8°C° 0.4 mm 12 m/s 739 mmHg 94%
22:00 +7°C° 0.3 mm 12 m/s 739 mmHg 93%
23:00 +7°C° 0.3 mm 12 m/s 739 mmHg 93%
Mostrar mais

Necessitamos do seu Consentimento

A Meteoprog e os seus Fornecedores de Serviços podem armazenar e aceder a dados pessoais como cookies, identificadores do dispositivo ou outras tecnologias semelhantes existentes no seu dispositivo e processar estes dados para personalizar conteúdos e anúncios, assim como funcionalidades nas redes sociais e análise de tráfego.

  • Armazenar e/ou aceder a informações no seu dispositivo

    Os cookies, identificadores do dispositivo ou outras informações podem ser armazenados ou acedidos no seu dispositivo, para os fins acima indicados.

  • Anúncios e conteúdos personalizados, medição de anúncios e conteúdos, dados sobre o público-alvo e desenvolvimento de produtos

    Os anúncios e os conteúdos podem ser personalizados com base num perfil. Podem ser adicionados dados adicionais para uma maior personalização dos anúncios e dos conteúdos. A eficácia dos anúncios e dos conteúdos pode ser medida. Podem ser obtidas informações sobre o público que visualizou os anúncios e os conteúdos. Estes dados podem ser usados para desenvolver ou melhorar sistemas, softwares ou a experiência do utilizador.

Ao clicar em "Eu concordo”, permitirá o uso de cookies, identificadores do dispositivo e web beacons mencionados ou outras tecnologias semelhantes. As configurações do navegador do seu dispositivo podem ser alteradas.

Para certos fins, podem ser invocados interesses legítimos ao invés de consentimento. Pode ler mais informação sobre este assunto na nossa Política de Privacidade e Cookies.